Meteo Giornale » Osservazioni meteo Italia » Bologna-Borgo Panigale

ore: 16:50 - Osservazioni Meteo Bologna-Borgo Panigale
Lat. 44° 32' N Lon. 11° 18' E Alt. 36 metri s.l.m.

nuvoloso Europe/Rome

17 °C

Nuvoloso

Temp. 24 Ore

9 °C

19 °C

Nord

5.5 Km/h

Dew point 5 °C

Umidità 45 %

Visibilità  10 Km

Il sole sorge alle ore 06:04

Il sole tramonta alle ore 18:36

Data e Ora Cielo e Fenomeni T °C DP °C Um. % Pres. hPa Vis. km Vento km/h
Oggi h: 16:50 nuvoloso Nuvoloso 17 5 45 1016 10 N 5.5
Oggi h: 16:20 nuvoloso Rovescio nelle Vicinanze 18 5 42 1016 10 N 3.7
Oggi h: 15:50 nuvoloso Nuvoloso 18 4 39 1016 10 E/NE 7.4
Oggi h: 15:20 nuvoloso Nuvoloso 18 4 39 1016 10 N 9.3
Oggi h: 14:50 nuvoloso Nuvoloso 18 5 42 1017 10 N 11.1
Oggi h: 14:20 poco_nuvoloso Poco Nuvoloso 18 5 42 1016 10 N 9.3
Oggi h: 13:50 poco_nuvoloso Poco Nuvoloso 18 6 45 1017 10 NO 11.1
Oggi h: 13:20 poco_nuvoloso Poco Nuvoloso 18 7 48 1017 10 NO 13
Oggi h: 12:50 poco_nuvoloso Poco Nuvoloso 17 7 51 1017 10 NO 14.8
Oggi h: 12:20 sereno Sereno 17 6 48 1017 10 NO 14.8
Oggi h: 11:50 sereno Sereno 17 7 51 1018 10 O/NO 16.7
Oggi h: 11:20 sereno Sereno 16 7 55 1018 10 NO 13
Oggi h: 10:50 sereno Sereno 15 7 58 1018 10 O/NO 13
Oggi h: 10:20 sereno Sereno 15 7 58 1018 10 O/NO 13
Oggi h: 09:50 sereno Sereno 15 6 54 1018 10 NO 11.1
Oggi h: 09:20 sereno Sereno 14 5 54 1018 10 O/NO 13
Oggi h: 08:50 sereno Sereno 14 6 58 1018 10 O/NO 7.4
Oggi h: 08:20 sereno Sereno 13 7 66 1018 10 SO 11.1
Oggi h: 07:50 sereno Sereno 12 6 66 1018 10 S/SO 11.1
Oggi h: 07:20 sereno Sereno 11 7 76 1018 10 S 13
Oggi h: 06:50 sereno Sereno 10 8 87 1018 10 SO 9.3
Oggi h: 06:20 poco_nuvoloso Poco Nuvoloso 9 7 87 1018 10 S/SO 7.4
Oggi h: 05:50 nuvoloso Nuvoloso 10 8 87 1018 10 O 7.4
Oggi h: 05:20 molto_nuvoloso Molto Nuvoloso 11 9 87 1018 10 N 5.5
Oggi h: 04:50 molto_nuvoloso Molto Nuvoloso 11 9 87 1018 10 O/NO 9.3
Oggi h: 04:20 molto_nuvoloso Molto Nuvoloso 11 9 87 1018 10 O 9.3
Oggi h: 03:50 molto_nuvoloso Molto Nuvoloso 11 9 87 1017 10 O/NO 9.3
Oggi h: 03:50 molto_nuvoloso Molto Nuvoloso 12 10 87 1018 10 O/NO 9.3
Oggi h: 03:20 nuvoloso Nuvoloso 12 11 93 1018 7 NO 9.3
Oggi h: 01:50 nuvoloso Nuvoloso 13 12 93 1018 7 N 5.5
Oggi h: 01:20 nuvoloso Nuvoloso 13 12 93 1017 7 N 3.7
Oggi h: 00:50 coperto_pioggia Pioggia Debole 13 12 93 1017 8 N 3.7
Oggi h: 00:20 coperto_pioggia Pioggia Debole 13 12 93 1018 10 N 5.5
Ieri h: 23:50 coperto_pioggia Pioggia Debole 15 11 76 1017 10 O/SO 14.8
Ieri h: 23:20 coperto_pioggia Pioggia 15 11 76 1017 9 S 18.5
Ieri h: 22:50 nuvoloso Nuvoloso 17 10 63 1017 10 S 14.8
Ieri h: 22:20 nuvoloso Nuvoloso 15 11 76 1017 10 S/SE 7.4
Ieri h: 21:50 nuvoloso Nuvoloso 15 10 72 1016 10 N 3.7
Ieri h: 21:20 poco_nuvoloso Poco Nuvoloso 15 10 72 1017 10 E 7.4
Ieri h: 20:50 nuvoloso Nuvoloso 15 10 72 1017 10 E/SE 9.3
Ieri h: 20:20 poco_nuvoloso Poco Nuvoloso 16 10 67 1017 10 E/SE 14.8
Ieri h: 19:50 sereno Sereno 16 10 67 1016 10 E/SE 14.8
Ieri h: 19:20 sereno Sereno 16 10 67 1016 10 E/SE 18.5
Ieri h: 18:50 sereno Sereno 17 10 63 1017 10 E/SE 20.3
Ieri h: 18:20 sereno Sereno 17 10 63 1017 10 E/SE 16.7
Ieri h: 17:50 sereno Sereno 19 10 55 1017 10 E/SE 18.5